STARLINK-4520 (53400 NORAD) Tracking and Keplerian Element Data

This shows tracking and keplerian element data for the satellite.

Feedback or suggestion? Click here.




ElementValue
Catalog53400
NameSTARLINK-4520
Epoch Orbit1618
Epoch Day325.15875644
Epoch Year2022
RAAN131.4556
Inclination53.2187
Eccentricity0.0001987
Argument of Perigee45.6368
Mean Anonmoly314.4787
Mean Motion15.08842265
Decay Rate2.84E-06
L11 53400U 22097N 22325.15875644 .00000284 00000+0 35979-4 0 9996
L22 53400 53.2187 131.4556 0001987 45.6368 314.4787 15.08842265 16183



Live tracking and technical data element details for STARLINK-4520 (NORAD 53400). STARLINK-4520 can be tracked NOW for your location showing map with azimuth and elevation plus other details from your city location.







IsCatalogInMostPopularTable: catalog: 53400, numindb: 7
Update: records affected: 1



GetName: 53400 STARLINK-4520

Hit Count: updated at: Thu, 08 Dec 2022 19:30:28 GMT